GW6637 Weather Reports


time (UTC)temp
C
wind
direction
speed
KPH
gust
KPH
rain 1hr
cm
rain 24hr
cm
rain mn
cm
humidity
%
barometer
mb
20260510164509 26 282 1.6 3.2 0.00 0.00 0.00 37 1015.6
20260510164004 26 261 4.8 4.8 0.00 0.00 0.00 38 1015.6
20260510163500 26 302 4.8 6.4 0.00 0.00 0.00 37 1015.7
20260510162955 26 210 3.2 4.8 0.00 0.00 0.00 38 1015.7
20260510162452 26 152 3.2 4.8 0.00 0.00 0.00 37 1015.8
20260510161949 26 192 4.8 6.4 0.00 0.00 0.00 38 1015.7
20260510161444 25 199 6.4 6.4 0.00 0.00 0.00 39 1015.8
20260510160942 25 151 4.8 6.4 0.00 0.00 0.00 40 1016.0
20260510160439 25 193 3.2 4.8 0.00 0.00 0.00 40 1016.0
20260510155937 25 310 6.4 6.4 0.00 0.00 0.00 41 1016.0
20260510155434 25 217 11.3 16.1 0.00 0.00 0.00 40 1016.1
20260510154931 25 207 6.4 6.4 0.00 0.00 0.00 41 1016.1
20260510154427 25 240 4.8 6.4 0.00 0.00 0.00 42 1016.1
20260510153925 25 279 6.4 9.7 0.00 0.00 0.00 41 1016.0
20260510153423 24 210 8.0 11.3 0.00 0.00 0.00 41 1016.1
20260510152919 24 228 6.4 9.7 0.00 0.00 0.00 41 1016.4
20260510152417 25 196 3.2 4.8 0.00 0.00 0.00 42 1016.5
20260510151913 24 298 6.4 6.4 0.00 0.00 0.00 43 1016.3
20260510151411 23 173 4.8 4.8 0.00 0.00 0.00 44 1016.1
20260510150907 23 229 6.4 6.4 0.00 0.00 0.00 43 1016.3
20260510150402 23 199 9.7 11.3 0.00 0.00 0.00 44 1016.5
20260510145858 23 232 4.8 4.8 0.00 0.00 0.00 45 1016.5
20260510145355 23 251 4.8 4.8 0.00 0.00 0.00 45 1016.3
20260510144852 23 279 9.7 12.9 0.00 0.00 0.00 45 1016.4
20260510144348 22 268 8.0 11.3 0.00 0.00 0.00 46 1016.4
20260510143843 22 281 9.7 16.1 0.00 0.00 0.00 46 1016.3
20260510143339 22 166 4.8 6.4 0.00 0.00 0.00 47 1016.3
20260510142837 22 315 9.7 11.3 0.00 0.00 0.00 48 1016.5
20260510142333 22 252 6.4 6.4 0.00 0.00 0.00 48 1016.5
20260510141830 21 206 3.2 3.2 0.00 0.00 0.00 49 1016.4
20260510141327 21 7 6.4 6.4 0.00 0.00 0.00 50 1016.4
20260510140825 21 214 3.2 3.2 0.00 0.00 0.00 51 1016.5
20260510140320 21 269 4.8 4.8 0.00 0.00 0.00 54 1016.4
20260510135819 20 162 0.0 1.6 0.00 0.00 0.00 52 1016.9
20260510135315 20 138 4.8 6.4 0.00 0.00 0.00 53 1016.7
20260510134813 20 150 0.0 1.6 0.00 0.00 0.00 54 1016.7
20260510134310 20 192 3.2 4.8 0.00 0.00 0.00 55 1016.6
20260510133806 20 194 4.8 6.4 0.00 0.00 0.00 54 1016.6
20260510133302 20 188 3.2 4.8 0.00 0.00 0.00 55 1016.7
20260510132757 19 281 1.6 3.2 0.00 0.00 0.00 56 1016.6
20260510132256 19 305 6.4 9.7 0.00 0.00 0.00 55 1016.6
20260510131752 19 283 4.8 6.4 0.00 0.00 0.00 57 1016.6
20260510131250 19 278 3.2 4.8 0.00 0.00 0.00 57 1016.7
20260510130746 18 252 1.6 3.2 0.00 0.00 0.00 58 1016.5
20260510130243 18 231 4.8 4.8 0.00 0.00 0.00 59 1016.4
20260510125740 18 225 3.2 6.4 0.00 0.00 0.00 60 1016.5
20260510125236 17 275 4.8 6.4 0.00 0.00 0.00 61 1016.6
20260510124732 17 209 4.8 6.4 0.00 0.00 0.00 62 1016.5
20260510124231 17 281 3.2 6.4 0.00 0.00 0.00 64 1016.5
20260510123725 16 310 9.7 12.9 0.00 0.00 0.00 65 1016.5
20260510123221 16 283 3.2 3.2 0.00 0.00 0.00 66 1016.4
20260510122718 16 274 3.2 4.8 0.00 0.00 0.00 67 1016.1
20260510122215 16 234 1.6 3.2 0.00 0.00 0.00 69 1016.4
20260510121711 15 275 1.6 1.6 0.00 0.00 0.00 70 1016.4
20260510121209 15 261 6.4 9.7 0.00 0.00 0.00 70 1016.4
20260510120705 15 280 1.6 1.6 0.00 0.00 0.00 72 1016.1
20260510120202 15 165 0.0 0.0 0.00 0.00 0.00 73 1016.3
20260510115657 14 269 6.4 6.4 0.00 0.00 0.00 74 1016.5
20260510115156 13 283 1.6 3.2 0.00 0.00 0.00 75 1016.2
20260510114651 13 273 3.2 3.2 0.00 0.00 0.00 76 1016.2
20260510114148 13 276 6.4 6.4 0.00 0.00 0.00 77 1016.1
20260510113643 13 285 4.8 4.8 0.00 0.00 0.00 78 1016.1
20260510113140 12 309 1.6 1.6 0.00 0.00 0.00 79 1016.1
20260510112637 12 273 4.8 6.4 0.00 0.00 0.00 81 1015.9
20260510112134 12 296 3.2 4.8 0.00 0.00 0.00 81 1015.7
20260510111630 12 267 1.6 1.6 0.00 0.00 0.00 82 1015.8
20260510111126 11 298 1.6 1.6 0.00 0.00 0.00 83 1015.8
20260510110622 11 266 4.8 4.8 0.00 0.00 0.00 85 1015.6
20260510110119 11 348 1.6 1.6 0.00 0.00 0.00 86 1015.5
20260510105615 11 36 0.0 1.6 0.00 0.00 0.00 87 1015.3
20260510105109 10 39 0.0 1.6 0.00 0.00 0.00 89 1015.2
20260510104606 10 351 1.6 3.2 0.00 0.00 0.00 92 1015.2
20260510104103 9 56 1.6 1.6 0.00 0.00 0.00 91 1015.0
20260510103600 9 56 1.6 1.6 0.00 0.00 0.00 90 1015.2
20260510103055 9 56 0.0 0.0 0.00 0.00 0.00 90 1015.1
20260510102551 10 56 0.0 0.0 0.00 0.00 0.00 89 1015.1
20260510102047 10 54 0.0 1.6 0.00 0.00 0.00 89 1015.0
20260510101545 10 54 0.0 0.0 0.00 0.00 0.00 89 1014.9
20260510101044 10 53 0.0 0.0 0.00 0.00 0.00 91 1015.0
20260510100539 9 62 1.6 1.6 0.00 0.00 0.00 92 1014.7
20260510100037 9 50 0.0 1.6 0.00 0.00 0.00 94 1014.8
20260510095533 8 79 0.0 1.6 0.00 0.00 0.00 94 1014.9
20260510095032 8 82 0.0 1.6 0.00 0.00 0.00 94 1014.7
20260510094527 8 82 0.0 0.0 0.00 0.00 0.00 94 1014.7
20260510094022 8 82 0.0 0.0 0.00 0.00 0.00 94 1014.6
20260510093518 8 82 0.0 0.0 0.00 0.00 0.00 94 1014.7
20260510093015 8 83 0.0 0.0 0.00 0.00 0.00 94 1014.4
20260510092513 8 82 1.6 1.6 0.00 0.00 0.00 94 1014.5
20260510092012 8 81 0.0 0.0 0.00 0.00 0.00 94 1014.4
20260510091509 8 81 0.0 0.0 0.00 0.00 0.00 93 1014.4
20260510091005 8 98 1.6 1.6 0.00 0.00 0.00 94 1014.3
20260510090503 8 96 0.0 0.0 0.00 0.00 0.00 93 1014.4
20260510085957 8 96 0.0 0.0 0.00 0.00 0.00 93 1014.4
20260510085453 8 96 0.0 0.0 0.00 0.00 0.00 93 1014.2
20260510084948 8 96 0.0 0.0 0.00 0.00 0.00 93 1014.4
20260510084446 8 96 0.0 0.0 0.00 0.00 0.00 93 1014.4
20260510083942 8 96 0.0 0.0 0.00 0.00 0.00 93 1014.2
20260510083439 8 96 0.0 0.0 0.00 0.00 0.00 93 1014.4
20260510082934 8 96 0.0 0.0 0.00 0.00 0.00 93 1014.3
20260510082433 8 96 0.0 0.0 0.00 0.00 0.00 93 1014.5
20260510081931 8 96 0.0 0.0 0.00 0.00 0.00 92 1014.2
20260510081427 8 96 0.0 0.0 0.00 0.00 0.00 93 1014.3
20260510080924 8 96 0.0 0.0 0.00 0.00 0.00 93 1014.1
20260510080423 8 96 0.0 0.0 0.00 0.00 0.00 92 1014.1
20260510075920 8 97 0.0 0.0 0.00 0.00 0.00 92 1013.8
20260510075418 8 96 0.0 0.0 0.00 0.00 0.00 92 1013.8
20260510074914 8 97 0.0 0.0 0.00 0.00 0.00 92 1013.9
20260510074411 8 97 0.0 0.0 0.00 0.00 0.00 92 1013.8
20260510073908 8 96 0.0 0.0 0.00 0.00 0.00 92 1013.9
20260510073403 8 96 0.0 0.0 0.00 0.00 0.00 91 1013.7
20260510072900 8 96 0.0 0.0 0.00 0.00 0.00 92 1013.6
20260510072357 8 96 0.0 0.0 0.00 0.00 0.00 91 1013.8
20260510071852 8 96 0.0 0.0 0.00 0.00 0.00 91 1013.6
20260510071349 8 96 0.0 0.0 0.00 0.00 0.00 91 1013.7
20260510070848 8 96 0.0 0.0 0.00 0.00 0.00 90 1013.6
20260510070344 8 96 0.0 0.0 0.00 0.00 0.00 91 1013.7
20260510065844 8 96 0.0 0.0 0.00 0.00 0.00 90 1013.7
20260510065341 8 96 0.0 0.0 0.00 0.00 0.00 90 1013.5
20260510064838 9 96 0.0 0.0 0.00 0.00 0.00 90 1013.5
20260510064336 9 96 0.0 0.0 0.00 0.00 0.00 89 1013.6
20260510063832 9 96 0.0 0.0 0.00 0.00 0.00 89 1013.7
20260510063329 9 97 0.0 0.0 0.00 0.00 0.00 88 1013.6
20260510062825 9 96 0.0 0.0 0.00 0.00 0.00 88 1013.7
20260510062321 9 96 0.0 1.6 0.00 0.00 0.00 88 1013.6
20260510061816 10 96 0.0 0.0 0.00 0.00 0.00 88 1013.8
20260510061313 10 96 0.0 0.0 0.00 0.00 0.00 87 1013.6
20260510060809 10 96 0.0 0.0 0.00 0.00 0.00 87 1013.8
20260510060307 10 97 0.0 0.0 0.00 0.00 0.00 87 1013.8
20260510055803 10 96 0.0 0.0 0.00 0.00 0.00 87 1013.7
20260510055301 10 96 0.0 0.0 0.00 0.00 0.00 86 1013.7
20260510054801 10 96 0.0 0.0 0.00 0.00 0.00 86 1014.0
20260510054258 10 96 0.0 0.0 0.00 0.00 0.00 86 1013.9
20260510053758 10 96 0.0 0.0 0.00 0.00 0.00 85 1013.7
20260510053253 10 96 0.0 0.0 0.00 0.00 0.00 85 1013.8
20260510052750 10 96 0.0 0.0 0.00 0.00 0.00 84 1013.7
20260510052246 10 96 0.0 0.0 0.00 0.00 0.00 84 1014.0
20260510051742 10 96 0.0 0.0 0.00 0.00 0.00 84 1013.8
20260510051239 10 96 0.0 0.0 0.00 0.00 0.00 83 1013.9
20260510050736 11 96 0.0 0.0 0.00 0.00 0.00 83 1013.7
20260510050233 11 96 0.0 1.6 0.00 0.00 0.00 83 1013.7
20260510045730 10 96 0.0 0.0 0.00 0.00 0.00 82 1013.8
20260510045226 11 96 0.0 0.0 0.00 0.00 0.00 81 1013.7
20260510044722 11 96 0.0 0.0 0.00 0.00 0.00 81 1013.6
20260510044221 11 96 0.0 0.0 0.00 0.00 0.00 81 1013.5
20260510043715 11 96 0.0 0.0 0.00 0.00 0.00 80 1013.5
20260510043213 11 96 0.0 0.0 0.00 0.00 0.00 80 1013.7
20260510042709 11 96 0.0 0.0 0.00 0.00 0.00 80 1013.7
20260510042206 11 96 0.0 0.0 0.00 0.00 0.00 80 1013.8
20260510041703 11 96 0.0 0.0 0.00 0.00 0.00 79 1013.8
20260510041200 11 96 0.0 0.0 0.00 0.00 0.00 79 1013.6
20260510040657 11 97 0.0 0.0 0.00 0.00 0.00 78 1013.7
20260510040154 11 97 0.0 0.0 0.00 0.00 0.00 78 1013.5
20260510035649 12 96 0.0 0.0 0.00 0.00 0.00 77 1013.3
20260510035145 12 96 0.0 1.6 0.00 0.00 0.00 78 1013.6
20260510034641 12 97 0.0 1.6 0.00 0.00 0.00 76 1013.6
20260510034139 12 103 0.0 0.0 0.00 0.00 0.00 76 1013.6
20260510033635 12 104 0.0 0.0 0.00 0.00 0.00 75 1013.5
20260510033133 12 103 0.0 0.0 0.00 0.00 0.00 75 1013.3
20260510032629 12 103 0.0 0.0 0.00 0.00 0.00 74 1013.3
20260510032124 12 95 1.6 1.6 0.00 0.00 0.00 74 1013.2
20260510031620 12 94 0.0 0.0 0.00 0.00 0.00 73 1013.5
20260510031117 13 94 0.0 0.0 0.00 0.00 0.00 73 1013.0
20260510030611 13 94 0.0 0.0 0.00 0.00 0.00 71 1013.2
20260510030109 13 125 0.0 0.0 0.00 0.00 0.00 70 1013.1
20260510025606 13 125 0.0 0.0 0.00 0.00 0.00 70 1013.0
20260510025103 13 126 1.6 1.6 0.00 0.00 0.00 71 1013.1
20260510024600 13 95 0.0 0.0 0.00 0.00 0.00 71 1012.9
20260510024056 13 69 0.0 0.0 0.00 0.00 0.00 71 1012.8
20260510023553 13 69 0.0 0.0 0.00 0.00 0.00 71 1013.0
20260510023050 13 69 0.0 0.0 0.00 0.00 0.00 71 1012.9
20260510022550 13 69 0.0 0.0 0.00 0.00 0.00 70 1013.0
20260510022050 13 69 0.0 0.0 0.00 0.00 0.00 70 1012.8
20260510021546 13 69 0.0 0.0 0.00 0.00 0.00 70 1012.9
20260510021044 13 69 0.0 0.0 0.00 0.00 0.00 69 1012.6
20260510020538 13 69 0.0 0.0 0.00 0.00 0.00 69 1012.7
20260510020034 14 69 0.0 0.0 0.00 0.00 0.00 68 1012.5
20260510015530 14 69 0.0 0.0 0.00 0.00 0.00 67 1012.4
20260510015026 14 69 0.0 0.0 0.00 0.00 0.00 66 1012.2
20260510014523 15 69 0.0 0.0 0.00 0.00 0.00 66 1012.6
20260510014020 15 69 0.0 0.0 0.00 0.00 0.00 66 1012.3
20260510013514 15 69 0.0 0.0 0.00 0.00 0.00 64 1012.0
20260510013010 15 69 0.0 0.0 0.00 0.00 0.00 63 1011.7
20260510012505 15 69 0.0 0.0 0.00 0.00 0.00 62 1011.8
20260510012000 16 69 0.0 0.0 0.00 0.00 0.00 61 1011.8
20260510011455 16 69 0.0 0.0 0.00 0.00 0.00 59 1011.6
20260510010951 16 69 0.0 0.0 0.00 0.00 0.00 58 1011.7
20260510010449 16 69 0.0 0.0 0.00 0.00 0.00 57 1011.5
20260510005945 16 69 0.0 0.0 0.00 0.00 0.00 56 1011.6
20260510005441 17 69 0.0 0.0 0.00 0.00 0.00 54 1011.5
20260510004939 17 69 0.0 0.0 0.00 0.00 0.00 54 1011.4
20260510004436 18 69 0.0 0.0 0.00 0.00 0.00 50 1011.3
20260510003934 18 69 0.0 1.6 0.00 0.00 0.00 48 1011.3
20260510003431 18 69 0.0 0.0 0.00 0.00 0.00 47 1011.4
20260510002930 19 69 0.0 0.0 0.00 0.00 0.00 45 1011.2
20260510002427 20 69 0.0 0.0 0.00 0.00 0.00 45 1011.2
20260510001923 20 69 0.0 0.0 0.00 0.00 0.00 43 1011.1
20260510001421 20 68 0.0 0.0 0.00 0.00 0.00 42 1011.0
20260510000919 20 70 0.0 0.0 0.00 0.00 0.00 42 1011.1
20260510000415 21 69 0.0 0.0 0.00 0.00 0.00 40 1010.8
20260509235911 21 84 0.0 0.0 0.00 0.00 0.00 39 1010.6
20260509235408 21 67 0.0 1.6 0.00 0.00 0.00 38 1010.7
20260509234904 21 139 0.0 1.6 0.00 0.00 0.00 38 1010.6
20260509234402 22 89 1.6 1.6 0.00 0.00 0.00 38 1010.5
20260509233859 22 201 1.6 1.6 0.00 0.00 0.00 36 1010.4
20260509233357 22 173 3.2 3.2 0.00 0.00 0.00 36 1010.3
20260509232852 22 173 1.6 3.2 0.00 0.00 0.00 35 1010.4
20260509232350 22 256 1.6 3.2 0.00 0.00 0.00 35 1010.4
20260509231846 22 185 3.2 3.2 0.00 0.00 0.00 35 1010.4
20260509231343 22 348 3.2 4.8 0.00 0.00 0.00 35 1010.3
20260509230841 23 300 4.8 4.8 0.00 0.00 0.00 35 1010.2
20260509230338 23 239 6.4 9.7 0.00 0.00 0.00 35 1010.2
20260509225833 23 278 4.8 4.8 0.00 0.00 0.00 36 1009.9
20260509225330 24 301 3.2 4.8 0.00 0.00 0.00 35 1009.8
20260509224826 24 180 1.6 3.2 0.00 0.00 0.00 34 1009.8
20260509224322 23 169 1.6 1.6 0.00 0.00 0.00 35 1010.0
20260509223819 23 270 3.2 3.2 0.00 0.00 0.00 36 1010.3
20260509223316 23 91 0.0 1.6 0.00 0.00 0.00 36 1010.0
20260509222813 24 348 4.8 6.4 0.00 0.00 0.00 34 1009.9
20260509222308 24 240 3.2 3.2 0.00 0.00 0.00 35 1009.9
20260509221804 23 54 1.6 1.6 0.00 0.00 0.00 35 1009.8
20260509221302 24 72 1.6 1.6 0.00 0.00 0.00 34 1010.2
20260509220756 25 211 1.6 1.6 0.00 0.00 0.00 34 1009.8
20260509220253 24 287 4.8 4.8 0.00 0.00 0.00 33 1009.9
20260509215748 23 305 6.4 6.4 0.00 0.00 0.00 35 1009.9
20260509215245 23 265 6.4 9.7 0.00 0.00 0.00 35 1009.9
20260509214742 23 164 3.2 3.2 0.00 0.00 0.00 35 1009.8
20260509214239 23 273 6.4 6.4 0.00 0.00 0.00 35 1009.8
20260509213736 24 269 3.2 4.8 0.00 0.00 0.00 35 1009.9
20260509213232 24 277 8.0 9.7 0.00 0.00 0.00 34 1009.5
20260509212730 24 234 3.2 4.8 0.00 0.00 0.00 35 1009.7
20260509212227 24 199 9.7 11.3 0.00 0.00 0.00 35 1009.3
20260509211722 24 177 4.8 4.8 0.00 0.00 0.00 35 1009.6
20260509211219 23 197 8.0 11.3 0.00 0.00 0.00 35 1009.5
20260509210715 23 216 3.2 3.2 0.00 0.00 0.00 34 1009.4
20260509210213 24 264 6.4 6.4 0.00 0.00 0.00 34 1009.3
20260509205713 24 287 8.0 9.7 0.00 0.00 0.00 34 1009.2
20260509205212 24 170 8.0 11.3 0.00 0.00 0.00 35 1009.3
20260509204709 24 168 4.8 6.4 0.00 0.00 0.00 34 1009.2
20260509204205 24 295 8.0 9.7 0.00 0.00 0.00 33 1009.3
20260509203701 24 189 6.4 6.4 0.00 0.00 0.00 33 1009.2
20260509203159 25 260 8.0 11.3 0.00 0.00 0.00 32 1009.1
20260509202655 25 213 14.5 22.5 0.00 0.00 0.00 32 1009.2
20260509202150 24 271 4.8 9.7 0.00 0.00 0.00 36 1009.3
20260509201645 23 296 9.7 12.9 0.00 0.00 0.00 34 1009.2
20260509201143 24 281 4.8 6.4 0.00 0.00 0.00 34 1009.2
20260509200638 24 203 8.0 14.5 0.00 0.00 0.00 32 1009.1
20260509200134 25 226 14.5 20.9 0.00 0.00 0.00 31 1009.4
20260509195630 25 190 3.2 3.2 0.00 0.00 0.00 34 1009.4
20260509195125 25 185 11.3 16.1 0.00 0.00 0.00 33 1009.3
20260509194625 25 272 3.2 3.2 0.00 0.00 0.00 35 1009.2
20260509194122 25 211 4.8 9.7 0.00 0.00 0.00 34 1009.3
20260509193618 25 221 11.3 16.1 0.00 0.00 0.00 32 1009.3
20260509193114 25 271 8.0 11.3 0.00 0.00 0.00 33 1009.4
20260509192611 24 195 6.4 6.4 0.00 0.00 0.00 35 1009.2
20260509192106 25 267 6.4 9.7 0.00 0.00 0.00 34 1009.2
20260509191601 25 173 3.2 4.8 0.00 0.00 0.00 33 1009.2
20260509191057 25 288 6.4 6.4 0.00 0.00 0.00 33 1009.3
20260509190554 25 174 4.8 6.4 0.00 0.00 0.00 34 1009.4
20260509190051 25 73 3.2 4.8 0.00 0.00 0.00 31 1009.4
20260509185549 25 161 6.4 11.3 0.00 0.00 0.00 33 1009.6
20260509185045 25 190 4.8 6.4 0.00 0.00 0.00 34 1009.7
20260509184543 25 166 6.4 9.7 0.00 0.00 0.00 34 1009.7
20260509184039 25 243 6.4 9.7 0.00 0.00 0.00 32 1009.5
20260509183534 25 154 4.8 4.8 0.00 0.00 0.00 32 1009.7
20260509183031 25 81 3.2 6.4 0.00 0.00 0.00 34 1009.4
20260509182527 25 168 3.2 4.8 0.00 0.00 0.00 33 1009.8
20260509182024 25 266 6.4 6.4 0.00 0.00 0.00 34 1010.0
20260509181523 25 172 4.8 6.4 0.00 0.00 0.00 35 1010.0
20260509181020 24 272 6.4 9.7 0.00 0.00 0.00 34 1010.0
20260509180515 24 280 6.4 9.7 0.00 0.00 0.00 35 1010.2
20260509180013 24 296 4.8 4.8 0.00 0.00 0.00 36 1010.2
20260509175508 24 195 8.0 9.7 0.00 0.00 0.00 34 1010.3
20260509175005 25 213 8.0 11.3 0.00 0.00 0.00 35 1010.3
20260509174501 23 186 3.2 3.2 0.00 0.00 0.00 42 1010.4
20260509173956 23 200 6.4 9.7 0.00 0.00 0.00 39 1010.4
20260509173450 23 91 3.2 4.8 0.00 0.00 0.00 43 1010.4
20260509172947 23 133 1.6 1.6 0.00 0.00 0.00 44 1010.7
20260509172444 23 175 9.7 11.3 0.00 0.00 0.00 42 1010.3
20260509171940 23 175 6.4 9.7 0.00 0.00 0.00 45 1010.7
20260509171436 23 206 3.2 4.8 0.00 0.00 0.00 43 1010.6
20260509170933 23 96 0.0 0.0 0.00 0.00 0.00 45 1010.6
20260509170428 23 131 1.6 1.6 0.00 0.00 0.00 48 1010.8
20260509165924 23 145 3.2 6.4 0.00 0.00 0.00 46 1010.9
20260509165418 22 141 4.8 4.8 0.00 0.00 0.00 48 1011.0
20260509164914 23 176 3.2 4.8 0.00 0.00 0.00 47 1011.0